Tracking 17631 objects as of 6-May-2016
HD Live streaming from Space Station
objects crossing your sky now

ARIANE 44L+3 R/B

Track ARIANE 44L+3 R/B now!


NORAD ID: 23866
Int'l Code: 1996-030C
Perigee: 299.1 km
Apogee: 30,886.7 km
Inclination: 4.5 °
Period: 539.9 minutes
Semi major axis: 21963 km
RCS: 20.3809 m2 (large)
Launch date: May 16, 1996
Source: France (FR)
Launch site: FRENCH GUIANA (FRGUI)

Note: This is a ROCKET BODY
Your satellite tracking list
Your tracking list is empty





NASA's NSSDC Master Catalog

Two Line Element Set (TLE):
1 23866U 96030C   16126.12053930  .00001242  00000-0  68784-3 0  9997
2 23866   4.5359  13.6417 6963156 255.9634  23.1786  2.66709645180118
Source of the keplerian elements: AFSPC

N2YO: 527